Location: Aula-Vintri
(58.3875°N, 22.4322°E)
Time: 07:03:40
(UTC+00:00)

SJ-6B - Pass Details

Date: 13 October 2019
Orbit: 510 x 582 km, 97.6° (Epoch: 16 November)

Event Time Altitude Azimuth Distance (km) Brightness Sun altitude
Exits shadow 16:18:51 - 100° (E) 1,929 5.0 -7.0°
Reaches altitude 10° 16:19:20 10° 95° (E) 1,787 4.8 -7.0°
Maximum altitude 16:21:53 17° 54° (NE) 1,379 4.4 -7.4°
Drops below altitude 10° 16:24:24 10° 12° (NNE) 1,772 5.3 -7.7°
Sets 16:27:02 0° 353° (N) 2,655 6.4 -8.0°
